DMSP 5D-2 F13 DEB, 40416

Orbit data source: Space-Track

DMSP 5D-2 F13 DEB, 40416 is space debris in SSO originally from a launch on Fri, 24 Mar 1995 UTC launched from the Air Force Western Test Range (AFWTR). Debris objects in space refer to the collection of defunct objects orbiting the Earth. Examples of debris include non-operational satellites, rocket bodies, and fragments generated from explosions, collisions, or faulty payload assembly.

Loading next visibility...
Identifier
40416, 1995-015AD
Orbit
SSO
Last TLE update
9 hours ago
Origin
Manufacturer
Unknown
Mission
Spacecraft
Bus & Motor
Unknown
Mass
Unknown
Launch date (UTC)
1995-03-24 (30 years ago)
Launch vehicle
Unknown
Launch site
Air Force Western Test Range (AFWTR)
Object type
Payload
Rocket body
Debris
Shape & HBR
Unknown
Radar Cross Section
Small (<0.1 m²)

Expand to show TLE details & history

TLE from 9 hours ago
0 DMSP 5D-2 F13 DEB
1 40416U 95015AD  25181.83814502  .00001458  00000-0  62442-3 0  9992
2 40416  98.7636 202.6064 0006132  52.4996 307.6740 14.26439538535637
Epoch: 2025-06-30T20:06Z
TLE epoch observation values (Epoch: 2025-06-30T20:06:55.729Z)
Latitude
-0.00009°
Longitude
-18.268°
Altitude
803.888 km
Speed
7.453 km/s
True Right ascension
13h 30m 25s
True Declination
0° 00' 00"
Sunlit
Object was in daylight at epoch
Visualization orbit readout
Latitude
-35.46278°
Longitude
155.85415°
Altitude
821.279 km
Speed
7.439 km/s
Apparent Right ascension
02h 56m 22s
Apparent Declination
-41° 29' 35"
Sunlit
Object is in daylight
Visualization observer readout
Local Sidereal Time
17:10:04
Azimuth
104.539° ESE
Elevation
-64.772°
Doppler factor
1
Orbital elements
Apogee altitude
805.211 km
Perigee altitude
796.407 km
Semi-major axis
7,178.946 km
Eccentricity
0.00061
Inclination
98.7636°
RAAN
202.6064°
Arg. of periapsis
52.4996°
True anomaly
Unknown
Mean anomaly
307.674°
Eccentric anomaly
Unknown
Mean motion
3.56822 °/min
Orbital period
100.89 mins
BSTAR
0.00062442
Loading maneuver chart data...
Loading SW <> Apogee altitude chart data...

DMSP 5D-2 F13 DEB Visibility forecast

Observer location: undefined°, undefined°

Span
Click to sort rows by Start time (UTC) header in descending order
Start Az.
Max El. time (UTC)
Max El. Az.
Max El.
End time (UTC)
End Az.
8 mins2025-07-01 13:32:25.743Z36.987° NE2025-07-01 13:36:25.743Z94.002° ESE28.199°2025-07-01 13:40:25.743Z155.194° SSE
7 mins2025-07-01 15:13:25.743Z339.05° N2025-07-01 15:16:25.743Z287.842° WNW26.671°2025-07-01 15:20:25.743Z234.931° WSW
8 mins2025-07-02 00:52:25.743Z137.025° SSE2025-07-02 00:55:25.743Z85.629° E36.443°2025-07-02 01:00:25.743Z359.175° N
6 mins2025-07-02 02:33:25.743Z233.957° WSW2025-07-02 02:35:25.743Z261.173° W18.5°2025-07-02 02:39:25.743Z311.926° NW
|